Location: ??????
(41.3164°N, 22.6615°E)
Time: 15:04:11
(UTC+00:00)

CANX-2 - Pass Details

Date: 16 August 2022
Orbit: 591 x 608 km, 97.7° (Epoch: 01 October)

Event Time Altitude Azimuth Distance (km) Brightness Sun altitude
Rises 02:25:06 0° 9° (N) 2,853 ? -13.4°
Reaches altitude 10° 02:27:16 10° 7° (N) 1,949 ? -13.0°
Maximum altitude 02:31:29 70° 285° (WNW) 645 ? -12.3°
Enters shadow 02:35:39 10° 202° (SSW) 1,932 ? -11.7°
